Location: *
(51.0333°S, 178.4667°E)
Time: 16:23:37
(UTC+00:00)

Lacrosse 5 rocket - Pass Details

Date: 15 November 2019
Orbit: 461 x 637 km, 57.0° (Epoch: 10 December)

Event Time Altitude Azimuth Distance (km) Brightness Sun altitude
Rises 09:23:55 0° 247° (WSW) 2,968 6.1 -13.4°
Reaches altitude 10° 09:27:13 10° 270° (W) 2,051 4.7 -13.7°
Maximum altitude 09:29:43 14° 303° (WNW) 1,762 3.9 -14.0°
Drops below altitude 10° 09:32:12 10° 335° (NNW) 2,023 3.9 -14.2°
Enters shadow 09:32:47 - 341° (NNW) 2,151 4.0 -14.2°
